Starlink 33881

operational
NORAD ID: 63779 Int'l Des: 2025-091 Owner: SPXS Country: US Constellation: starlink
LEOCIRCULAR

关于 Starlink 33881

正在加载描述...

实时位置

正在加载3D地球...

即将过境

高度历史

Altitude vs Time

uPlot chart will show altitude changes over time

两行轨道根数

1 63779U 25091E 26034.98934529 .00022897 00000-0 83843-3 0 9990
2 63779 42.9980 243.2409 0001820 261.7427 98.3218 15.27601317 43742
Epoch: Feb 3, 2026 • Age: 15 hours

当前状态

高度 484.8 km
速度 7.63 km/s
星下点 32.50°N, 25.83°E
发射日期 May 2, 2025
运行时间 0.7 years
类型 internet

技术详情

分类 Payload
质量 575.00 kg
干质量 530.00 kg
总质量 575.00 kg
长度 0.30 m
直径 4.10 m
跨度 29.00 m
形状 Box + pan
制造商 SPXS
平台类型 Starlink V2MO
阶段状态 In Orbit
所有者/国家 SPXS/US

大型星座

Loading constellations...